sat.trackr.live / text

‹ back to catalog

STARLINK-5425

NORAD 54791 · 2022-175AK

PAYLOAD ACTIVE UNKNOWN

§ Identity

Operator
Country
US
Launch date
2022-12-17
Launch site
AFETR
Launch vehicle
Mass (kg)
RCS (m²)

Purposes: comms

External: N2YO · Heavens-Above · Gunter

§ Orbital elements

Epoch: 2026-09-19T21:59:25.805760Z

Period
93.85 min
Inclination
53.1600°
Eccentricity
0.0001298
Mean motion
15.34390722 rev/d
Perigee alt
461.8 km
Apogee alt
463.6 km
Semi-major
6,840.9 km
B*
2.5104e-5
RAAN
222.3387°
Arg perigee
92.1593°
Mean anomaly
267.9559°
Rev number
20,965

§ Raw data

STARLINK-54251 54791U 22175AK  26262.91627090  .00000472  00000+0  25104-4 0  99932 54791  53.1600 222.3387 0001298  92.1593 267.9559 15.34390722209650

JSON: /api/v1/satellites/54791 · /tle

For live sub-satellite position, see the globe view (requires WebGL).

§ Visibility from observer

Set your observer location to see the next 7 days of passes ≥ 10°. The values pass through the URL so the page stays shareable.

No JS? Fill the form by hand. The geolocation button needs JavaScript.